| time (UTC) | temp F | wind direction | speed MPH | gust MPH | rain 1hr in | rain 24hr in | rain mn in | humidity % | barometer mb |
| 20260905024540 | 71 | 319 | 0.0 | 0.0 | 0.00 | 0.51 | 0.51 | 96 | 1013.4 |
| 20260905023034 | 71 | 319 | 0.0 | 0.0 | 0.00 | 0.51 | 0.51 | 96 | 1013.2 |
| 20260905021536 | 71 | 92 | 0.0 | 0.0 | 0.00 | 0.51 | 0.51 | 96 | 1013.1 |
| 20260905020037 | 71 | 94 | 0.0 | 0.0 | 0.00 | 0.51 | 0.51 | 96 | 1013.1 |
| 20260905014532 | 71 | 94 | 0.0 | 0.0 | 0.00 | 0.51 | 0.51 | 96 | 1013.2 |
| 20260905013032 | 71 | 94 | 0.0 | 0.0 | 0.00 | 0.51 | 0.51 | 96 | 1013.0 |
| 20260905011531 | 71 | 94 | 0.0 | 0.0 | 0.00 | 0.51 | 0.51 | 95 | 1013.1 |
| 20260905010038 | 71 | 94 | 0.0 | 0.0 | 0.00 | 0.51 | 0.51 | 95 | 1012.9 |
| 20260905004533 | 72 | 95 | 0.0 | 0.0 | 0.00 | 0.51 | 0.51 | 95 | 1012.8 |
| 20260905003029 | 72 | 94 | 0.0 | 0.0 | 0.00 | 0.51 | 0.51 | 95 | 1012.8 |
| 20260905001529 | 73 | 94 | 0.0 | 0.0 | 0.00 | 0.51 | 0.51 | 94 | 1012.8 |
| 20260905000033 | 73 | 94 | 0.0 | 0.0 | 0.00 | 0.51 | 0.51 | 94 | 1012.7 |
| 20260904234528 | 74 | 94 | 0.0 | 0.0 | 0.00 | 0.51 | 0.51 | 93 | 1012.6 |
| 20260904233027 | 74 | 94 | 0.0 | 0.0 | 0.00 | 0.51 | 0.51 | 93 | 1012.5 |
| 20260904231527 | 75 | 94 | 0.0 | 0.0 | 0.00 | 0.51 | 0.51 | 93 | 1012.3 |
| 20260904230026 | 75 | 95 | 0.0 | 0.0 | 0.00 | 0.51 | 0.51 | 93 | 1012.3 |
| 20260904224525 | 75 | 94 | 0.0 | 0.0 | 0.00 | 0.51 | 0.51 | 93 | 1012.1 |
| 20260904223025 | 75 | 93 | 0.0 | 0.0 | 0.00 | 0.51 | 0.51 | 93 | 1012.1 |
| 20260904221524 | 75 | 93 | 0.0 | 0.0 | 0.00 | 0.51 | 0.51 | 92 | 1012.0 |
| 20260904220024 | 75 | 92 | 0.0 | 1.0 | 0.00 | 0.51 | 0.51 | 91 | 1011.8 |
| 20260904214523 | 76 | 94 | 0.0 | 0.0 | 0.00 | 0.51 | 0.51 | 92 | 1012.0 |
| 20260904213023 | 75 | 95 | 0.0 | 0.0 | 0.00 | 0.51 | 0.51 | 92 | 1011.8 |
| 20260904211520 | 75 | 94 | 0.0 | 2.0 | 0.00 | 0.51 | 0.51 | 93 | 1011.5 |
| 20260904210021 | 75 | 55 | 0.0 | 1.0 | 0.00 | 0.51 | 0.51 | 95 | 1011.5 |
| 20260904204516 | 74 | 1 | 0.0 | 0.0 | 0.00 | 0.57 | 0.51 | 96 | 1011.4 |
| 20260904203020 | 74 | 34 | 0.0 | 0.0 | 0.00 | 0.57 | 0.51 | 96 | 1011.4 |
| 20260904201513 | 73 | 34 | 0.0 | 3.0 | 0.00 | 0.57 | 0.51 | 96 | 1011.4 |
| 20260904200010 | 74 | 108 | 0.0 | 0.0 | 0.00 | 0.57 | 0.51 | 96 | 1011.8 |
| 20260904194506 | 73 | 89 | 0.0 | 0.0 | 0.00 | 1.13 | 0.51 | 96 | 1011.9 |
| 20260904193005 | 72 | 146 | 0.0 | 0.0 | 0.00 | 1.13 | 0.51 | 96 | 1012.1 |
| 20260904191503 | 72 | 146 | 0.0 | 0.0 | 0.00 | 1.13 | 0.51 | 97 | 1012.3 |
| 20260904190100 | 72 | 146 | 0.0 | 0.0 | 0.00 | 1.13 | 0.51 | 97 | 1012.5 |
| 20260904184604 | 72 | 158 | 0.0 | 2.0 | 0.00 | 1.13 | 0.51 | 97 | 1012.7 |
| 20260904183055 | 71 | 166 | 0.0 | 3.0 | 0.00 | 1.13 | 0.51 | 97 | 1012.8 |
| 20260904181553 | 71 | 156 | 0.0 | 1.0 | 0.00 | 1.13 | 0.51 | 97 | 1013.0 |
| 20260904180052 | 71 | 127 | 0.0 | 1.0 | 0.00 | 1.13 | 0.51 | 97 | 1013.1 |
| 20260904174551 | 71 | 203 | 0.0 | 2.0 | 0.00 | 1.13 | 0.51 | 97 | 1013.1 |
| 20260904173103 | 71 | 202 | 0.0 | 1.0 | 0.00 | 1.13 | 0.51 | 97 | 1013.3 |
| 20260904171550 | 71 | 206 | 0.0 | 0.0 | 0.00 | 1.13 | 0.51 | 97 | 1013.4 |
| 20260904170048 | 70 | 39 | 0.0 | 0.0 | 0.02 | 1.13 | 0.51 | 97 | 1013.0 |
| 20260904164547 | 70 | 226 | 0.0 | 0.0 | 0.04 | 1.40 | 0.51 | 97 | 1013.5 |
| 20260904163044 | 69 | 226 | 0.0 | 2.0 | 0.07 | 1.40 | 0.51 | 97 | 1013.2 |
| 20260904161547 | 69 | 159 | 0.0 | 2.0 | 0.09 | 1.40 | 0.51 | 97 | 1013.3 |
| 20260904160047 | 69 | 167 | 0.0 | 0.0 | 0.08 | 1.38 | 0.49 | 97 | 1014.1 |
| 20260904154541 | 69 | 167 | 0.0 | 0.0 | 0.06 | 1.37 | 0.46 | 97 | 1014.4 |
| 20260904153042 | 69 | 168 | 0.0 | 1.0 | 0.07 | 1.35 | 0.44 | 97 | 1015.0 |
| 20260904151541 | 69 | 90 | 0.0 | 0.0 | 0.11 | 1.33 | 0.42 | 97 | 1015.0 |
| 20260904150040 | 69 | 90 | 0.0 | 0.0 | 0.17 | 1.32 | 0.41 | 97 | 1015.1 |
| 20260904144538 | 68 | 87 | 0.0 | 0.0 | 0.21 | 1.31 | 0.40 | 97 | 1014.6 |
| 20260904143038 | 68 | 86 | 0.0 | 0.0 | 0.23 | 1.28 | 0.37 | 97 | 1015.0 |
| 20260904141549 | 68 | 86 | 0.0 | 1.0 | 0.20 | 1.22 | 0.31 | 97 | 1015.2 |
| 20260904140037 | 68 | 191 | 0.0 | 1.0 | 0.16 | 1.14 | 0.24 | 97 | 1015.1 |
| 20260904134550 | 68 | 192 | 0.0 | 0.0 | 0.16 | 1.10 | 0.19 | 97 | 1014.7 |
| 20260904133035 | 68 | 193 | 0.0 | 0.0 | 0.12 | 1.05 | 0.14 | 97 | 1015.3 |
| 20260904131532 | 68 | 193 | 0.0 | 0.0 | 0.10 | 1.02 | 0.11 | 97 | 1014.4 |
| 20260904130030 | 68 | 193 | 0.0 | 1.0 | 0.07 | 0.99 | 0.08 | 97 | 1014.7 |
| 20260904124529 | 67 | 192 | 0.0 | 1.0 | 0.03 | 0.94 | 0.03 | 97 | 1014.5 |
| 20260904123028 | 67 | 192 | 0.0 | 1.0 | 0.02 | 0.93 | 0.02 | 97 | 1014.2 |
| 20260904121526 | 67 | 194 | 0.0 | 1.0 | 0.01 | 0.92 | 0.01 | 97 | 1014.3 |
| 20260904120026 | 67 | 194 | 0.0 | 1.0 | 0.01 | 0.92 | 0.01 | 97 | 1014.1 |
| 20260904114525 | 67 | 212 | 0.0 | 0.0 | 0.00 | 0.00 | 0.00 | 97 | 1014.4 |
| 20260904113025 | 67 | 211 | 0.0 | 1.0 | 0.00 | 0.91 | 0.00 | 97 | 1014.3 |
| 20260904111523 | 67 | 224 | 0.0 | 2.0 | 0.00 | 0.91 | 0.00 | 97 | 1014.0 |
| 20260904110022 | 67 | 190 | 0.0 | 0.0 | 0.00 | 0.91 | 0.00 | 97 | 1014.0 |
| 20260904104521 | 67 | 190 | 0.0 | 1.0 | 0.00 | 0.91 | 0.00 | 97 | 1013.6 |
| 20260904103022 | 67 | 191 | 0.0 | 2.0 | 0.00 | 0.91 | 0.00 | 97 | 1013.6 |
| 20260904101520 | 67 | 43 | 0.0 | 0.0 | 0.00 | 0.91 | 0.00 | 97 | 1012.9 |
| 20260904100021 | 67 | 48 | 0.0 | 1.0 | 0.00 | 0.91 | 0.00 | 97 | 1012.4 |
| 20260904094533 | 67 | 34 | 0.0 | 2.0 | 0.00 | 0.91 | 0.00 | 97 | 1012.5 |
| 20260904093018 | 67 | 290 | 0.0 | 2.0 | 0.00 | 0.91 | 0.00 | 97 | 1012.9 |
| 20260904091515 | 67 | 320 | 0.0 | 1.0 | 0.00 | 0.91 | 0.00 | 97 | 1013.2 |
| 20260904090030 | 67 | 4 | 0.0 | 2.0 | 0.00 | 0.91 | 0.00 | 97 | 1013.3 |
| 20260904084514 | 67 | 8 | 0.0 | 1.0 | 0.00 | 0.91 | 0.00 | 97 | 1013.4 |
| 20260904083014 | 67 | 41 | 0.0 | 1.0 | 0.00 | 0.91 | 0.00 | 97 | 1013.3 |
| 20260904081511 | 67 | 138 | 0.0 | 1.0 | 0.00 | 0.91 | 0.00 | 97 | 1013.4 |
| 20260904080012 | 67 | 139 | 0.0 | 0.0 | 0.00 | 0.91 | 0.00 | 97 | 1013.3 |
| 20260904074513 | 67 | 139 | 0.0 | 0.0 | 0.00 | 1.30 | 0.00 | 97 | 1013.0 |
| 20260904073011 | 67 | 139 | 0.0 | 0.0 | 0.00 | 1.30 | 0.00 | 97 | 1013.0 |
| 20260904071506 | 67 | 139 | 0.0 | 0.0 | 0.00 | 1.30 | 0.00 | 97 | 1013.3 |
| 20260904070005 | 68 | 138 | 0.0 | 0.0 | 0.00 | 1.30 | 0.00 | 97 | 1013.5 |
| 20260904064503 | 68 | 138 | 0.0 | 0.0 | 0.00 | 1.35 | 0.00 | 97 | 1013.7 |
| 20260904063009 | 67 | 139 | 0.0 | 0.0 | 0.00 | 1.35 | 0.00 | 97 | 1013.9 |
| 20260904061502 | 67 | 138 | 0.0 | 0.0 | 0.00 | 1.35 | 0.00 | 97 | 1013.6 |
| 20260904060001 | 67 | 138 | 0.0 | 0.0 | 0.00 | 1.35 | 0.00 | 97 | 1013.9 |
| 20260904054502 | 67 | 138 | 0.0 | 0.0 | 0.00 | 1.35 | 0.00 | 97 | 1014.0 |
| 20260904053106 | 67 | 139 | 0.0 | 0.0 | 0.00 | 1.35 | 0.00 | 97 | 1014.0 |
| 20260904051559 | 67 | 139 | 0.0 | 0.0 | 0.00 | 1.35 | 0.00 | 97 | 1014.0 |
| 20260904050157 | 67 | 138 | 0.0 | 0.0 | 0.00 | 1.35 | 0.00 | 97 | 1014.1 |
| 20260904044557 | 67 | 138 | 0.0 | 0.0 | 0.00 | 1.35 | 0.00 | 97 | 1014.1 |
| 20260904043101 | 67 | 139 | 0.0 | 0.0 | 0.00 | 1.35 | 0.00 | 97 | 1014.1 |
| 20260904041553 | 67 | 138 | 0.0 | 0.0 | 0.00 | 1.35 | 0.00 | 97 | 1014.0 |
| 20260904040104 | 67 | 138 | 0.0 | 0.0 | 0.00 | 1.35 | 0.00 | 97 | 1013.5 |
| 20260904034551 | 67 | 138 | 0.0 | 0.0 | 0.00 | 2.41 | 1.35 | 97 | 1013.4 |
| 20260904033051 | 67 | 138 | 0.0 | 0.0 | 0.00 | 2.41 | 1.35 | 97 | 1013.4 |
| 20260904031556 | 67 | 139 | 0.0 | 0.0 | 0.00 | 2.41 | 1.35 | 97 | 1013.2 |
| 20260904030049 | 67 | 138 | 0.0 | 0.0 | 0.00 | 2.41 | 1.35 | 96 | 1013.1 |